UAL7012 LEVC-LFBD

Flight info

Callsign UAL7012
Flight time N/A
Altitude 34000
Route SOPET N608 MATEX DCT OSLAP DCT USKAR DCT MOPAS DCT GIROM DCT AGN DCT SECHE/N0380F180 R17 MIRBA
Aircraft B738/M-SDE2E3FGHIRWXY/LB1

Departure

Time 2026-05-07 00:18
Airport Valencia Airport (LEVC)

Arrival

Time N/A
Airport Bordeaux–Mérignac Airport (LFBD)
Time Latitude Longitude Altitude Speed Heading
2026-05-07 00:07 39.49186 -0.47796 203 ft 0 kts 26°
2026-05-07 00:10 39.49182 -0.47798 203 ft 1 kts 27°
2026-05-07 00:10 39.49171 -0.47807 215 ft 1 kts 31°
2026-05-07 00:11 39.49161 -0.47815 208 ft 1 kts 38°
2026-05-07 00:11 39.49151 -0.47824 212 ft 1 kts 45°
2026-05-07 00:11 39.49143 -0.47835 218 ft 1 kts 49°
2026-05-07 00:11 39.49135 -0.47847 214 ft 1 kts 57°
2026-05-07 00:12 39.49129 -0.47860 210 ft 1 kts 66°
2026-05-07 00:12 39.49125 -0.47873 209 ft 1 kts 76°
2026-05-07 00:12 39.49123 -0.47887 217 ft 1 kts 85°
2026-05-07 00:12 39.49122 -0.47902 211 ft 1 kts 95°
2026-05-07 00:13 39.49123 -0.47916 216 ft 0 kts 101°
2026-05-07 00:14 39.49117 -0.47886 217 ft 10 kts 106°
2026-05-07 00:14 39.49052 -0.47786 207 ft 19 kts 135°
2026-05-07 00:15 39.48946 -0.47625 203 ft 28 kts 120°
2026-05-07 00:15 39.48907 -0.47525 212 ft 9 kts 116°
2026-05-07 00:15 39.48856 -0.47389 200 ft 25 kts 119°
2026-05-07 00:15 39.48753 -0.47310 200 ft 3 kts 157°
2026-05-07 00:16 39.48737 -0.47258 202 ft 11 kts 97°
2026-05-07 00:16 39.48733 -0.47108 186 ft 24 kts 112°
2026-05-07 00:16 39.48636 -0.46864 181 ft 37 kts 119°
2026-05-07 00:16 39.48578 -0.46750 178 ft 7 kts 124°
2026-05-07 00:17 39.48504 -0.46693 179 ft 18 kts 164°
2026-05-07 00:17 39.48394 -0.46738 181 ft 13 kts 257°
2026-05-07 00:17 39.48431 -0.46850 183 ft 19 kts 296°
2026-05-07 00:17 39.48519 -0.47085 183 ft 53 kts 296°
2026-05-07 00:18 39.48797 -0.47826 208 ft 130 kts 296°
2026-05-07 00:18 39.49299 -0.49170 291 ft 190 kts 297°
2026-05-07 00:18 39.49940 -0.50820 664 ft 216 kts 295°
2026-05-07 00:18 39.50559 -0.52608 1448 ft 216 kts 292°
2026-05-07 00:19 39.51200 -0.54360 2114 ft 205 kts 297°
2026-05-07 00:19 39.51841 -0.55909 2202 ft 188 kts 298°
2026-05-07 00:19 39.52476 -0.57420 1777 ft 194 kts 298°
2026-05-07 00:19 39.52905 -0.58440 1540 ft 195 kts 298°
2026-05-07 00:20 39.53507 -0.59873 1702 ft 169 kts 298°
2026-05-07 00:20 39.54111 -0.61309 1860 ft 197 kts 298°
2026-05-07 00:20 39.55004 -0.62731 2309 ft 211 kts 330°
2026-05-07 00:20 39.56462 -0.63074 2763 ft 227 kts 12°
2026-05-07 00:21 39.57858 -0.62030 3013 ft 241 kts 50°
2026-05-07 00:21 39.58874 -0.60274 3240 ft 245 kts 49°
2026-05-07 00:21 39.59866 -0.58488 3401 ft 244 kts 68°
2026-05-07 00:21 39.60253 -0.56360 3625 ft 243 kts 80°
2026-05-07 00:22 39.60593 -0.54196 3829 ft 246 kts 77°
2026-05-07 00:22 39.60985 -0.52039 4022 ft 246 kts 76°
2026-05-07 00:22 39.61400 -0.49881 4219 ft 246 kts 76°
2026-05-07 00:22 39.61821 -0.47759 4413 ft 246 kts 75°
2026-05-07 00:23 39.62257 -0.45608 4610 ft 246 kts 75°
2026-05-07 00:23 39.62698 -0.43460 4823 ft 247 kts 75°
2026-05-07 00:23 39.63143 -0.41307 5007 ft 247 kts 75°
2026-05-07 00:23 39.63593 -0.39141 5209 ft 248 kts 75°
2026-05-07 00:24 39.64043 -0.36981 5404 ft 249 kts 75°
2026-05-07 00:24 39.64496 -0.34809 5611 ft 250 kts 75°
2026-05-07 00:24 39.64949 -0.32637 5823 ft 251 kts 75°
2026-05-07 00:24 39.65408 -0.30443 6019 ft 252 kts 75°
2026-05-07 00:25 39.65867 -0.28240 6217 ft 253 kts 75°
2026-05-07 00:25 39.66322 -0.26058 6416 ft 254 kts 75°
2026-05-07 00:25 39.66789 -0.23812 6618 ft 254 kts 75°
2026-05-07 00:25 39.67265 -0.21629 6812 ft 255 kts 69°
2026-05-07 00:26 39.68223 -0.19710 6995 ft 254 kts 45°
2026-05-07 00:26 39.69503 -0.18132 7226 ft 254 kts 43°
2026-05-07 00:26 39.70771 -0.16540 7412 ft 255 kts 44°
2026-05-07 00:26 39.72047 -0.14926 7619 ft 256 kts 44°
2026-05-07 00:27 39.73329 -0.13301 7821 ft 257 kts 44°
2026-05-07 00:27 39.74602 -0.11687 8021 ft 258 kts 44°
2026-05-07 00:27 39.75898 -0.10042 8224 ft 259 kts 44°
2026-05-07 00:27 39.77188 -0.08404 8424 ft 260 kts 44°
2026-05-07 00:28 39.78487 -0.06754 8625 ft 261 kts 44°
2026-05-07 00:28 39.79791 -0.05096 8819 ft 262 kts 44°
2026-05-07 00:28 39.81080 -0.03457 9024 ft 263 kts 44°
2026-05-07 00:28 39.82389 -0.01791 9224 ft 263 kts 44°
2026-05-07 00:29 39.83823 -0.00323 9394 ft 264 kts 22°
2026-05-07 00:29 39.85570 0.00336 9635 ft 261 kts 13°
2026-05-07 00:30 39.90864 0.02258 10226 ft 266 kts 15°
2026-05-07 00:30 39.92657 0.02926 10437 ft 267 kts 15°
2026-05-07 00:30 39.94445 0.03593 10627 ft 268 kts 15°
2026-05-07 00:30 39.96243 0.04263 10830 ft 269 kts 15°
2026-05-07 00:31 39.98051 0.04936 11031 ft 270 kts 15°
2026-05-07 00:31 39.99858 0.05610 11222 ft 273 kts 15°
2026-05-07 00:31 40.01748 0.06313 11373 ft 293 kts 15°
2026-05-07 00:31 40.03777 0.07070 11552 ft 315 kts 15°
2026-05-07 00:32 40.05948 0.07879 11711 ft 336 kts 15°
2026-05-07 00:32 40.08283 0.08751 11909 ft 356 kts 15°
2026-05-07 00:32 40.10690 0.09650 12376 ft 364 kts 15°
2026-05-07 00:32 40.13139 0.10566 13058 ft 367 kts 15°
2026-05-07 00:33 40.15585 0.11483 13705 ft 370 kts 15°
2026-05-07 00:33 40.18088 0.12420 14273 ft 375 kts 15°
2026-05-07 00:33 40.20636 0.13374 14728 ft 383 kts 15°
2026-05-07 00:33 40.23203 0.14336 15289 ft 387 kts 15°
2026-05-07 00:34 40.25809 0.15310 15888 ft 389 kts 15°
2026-05-07 00:34 40.28425 0.16285 16465 ft 392 kts 15°
2026-05-07 00:34 40.31044 0.17261 17008 ft 395 kts 15°
2026-05-07 00:34 40.33684 0.18246 17518 ft 399 kts 15°
2026-05-07 00:35 40.36418 0.19267 18006 ft 403 kts 15°
2026-05-07 00:35 40.39082 0.20263 18514 ft 406 kts 15°
2026-05-07 00:35 40.41811 0.21285 19011 ft 409 kts 15°
2026-05-07 00:35 40.44571 0.22319 19490 ft 412 kts 15°
2026-05-07 00:36 40.47328 0.23354 19993 ft 414 kts 15°
2026-05-07 00:36 40.50108 0.24397 20466 ft 417 kts 15°
2026-05-07 00:36 40.52918 0.25452 20903 ft 420 kts 15°
2026-05-07 00:36 40.55713 0.26559 21313 ft 423 kts 19°
2026-05-07 00:37 40.58412 0.28159 21741 ft 426 kts 28°
2026-05-07 00:37 40.61014 0.30022 22164 ft 428 kts 28°
2026-05-07 00:37 40.63649 0.31909 22547 ft 431 kts 28°
2026-05-07 00:37 40.66306 0.33792 22924 ft 434 kts 28°
2026-05-07 00:38 40.68973 0.35665 23292 ft 436 kts 27°
2026-05-07 00:38 40.71663 0.37541 23665 ft 439 kts 27°
2026-05-07 00:38 40.74368 0.39420 24035 ft 441 kts 27°
2026-05-07 00:38 40.77082 0.41305 24401 ft 443 kts 27°
2026-05-07 00:39 40.79788 0.43185 24753 ft 445 kts 27°
2026-05-07 00:39 40.82555 0.45108 25084 ft 447 kts 27°
2026-05-07 00:39 40.85326 0.47038 25403 ft 449 kts 27°
2026-05-07 00:39 40.88058 0.48942 25714 ft 451 kts 27°
2026-05-07 00:40 40.90841 0.50884 26031 ft 453 kts 27°
2026-05-07 00:40 40.93634 0.52835 26367 ft 454 kts 27°
2026-05-07 00:40 40.96428 0.54789 26836 ft 451 kts 27°
2026-05-07 00:40 40.99181 0.56716 27400 ft 446 kts 27°
2026-05-07 00:41 41.01939 0.58649 27773 ft 446 kts 27°
2026-05-07 00:41 41.04687 0.60576 28117 ft 447 kts 27°
2026-05-07 00:41 41.07428 0.62500 28470 ft 446 kts 27°
2026-05-07 00:41 41.10175 0.64429 28858 ft 445 kts 27°
2026-05-07 00:42 41.12917 0.66330 29243 ft 444 kts 25°
2026-05-07 00:42 41.15780 0.67835 29556 ft 444 kts 17°
2026-05-07 00:42 41.18756 0.68968 29884 ft 444 kts 15°
2026-05-07 00:42 41.21735 0.70067 30167 ft 445 kts 15°
2026-05-07 00:43 41.24721 0.71174 30485 ft 445 kts 15°
2026-05-07 00:43 41.27689 0.72294 30862 ft 443 kts 15°
2026-05-07 00:43 41.30651 0.73428 31182 ft 442 kts 16°
2026-05-07 00:43 41.33609 0.74574 31434 ft 443 kts 16°
2026-05-07 00:44 41.36573 0.75731 31683 ft 444 kts 16°
2026-05-07 00:44 41.39538 0.76893 32023 ft 442 kts 16°
2026-05-07 00:44 41.42481 0.78048 32376 ft 440 kts 16°
2026-05-07 00:44 41.45419 0.79203 32687 ft 439 kts 16°
2026-05-07 00:45 41.48350 0.80356 32927 ft 439 kts 16°
2026-05-07 00:45 41.51242 0.81493 33172 ft 439 kts 16°
2026-05-07 00:45 41.54170 0.82646 33474 ft 437 kts 16°
2026-05-07 00:45 41.57089 0.83796 33771 ft 436 kts 16°
2026-05-07 00:46 41.60000 0.84944 33994 ft 436 kts 16°
2026-05-07 00:46 41.63040 0.86144 33984 ft 440 kts 16°
2026-05-07 00:46 41.68904 0.88462 33994 ft 440 kts 16°
2026-05-07 00:47 41.74755 0.90780 33993 ft 434 kts 16°
2026-05-07 00:47 41.80546 0.93077 34000 ft 432 kts 16°
2026-05-07 00:48 41.86303 0.95366 34009 ft 431 kts 16°
2026-05-07 00:48 41.92058 0.97658 34007 ft 431 kts 16°
2026-05-07 00:49 41.97838 0.99965 34005 ft 434 kts 16°
2026-05-07 00:49 42.03677 1.02300 34003 ft 442 kts 16°
2026-05-07 00:50 42.09577 1.04663 34016 ft 448 kts 16°
2026-05-07 00:50 42.15713 1.06402 34010 ft 454 kts
2026-05-07 00:51 42.22057 1.05878 34009 ft 460 kts 354°
2026-05-07 00:51 42.28461 1.05068 34003 ft 463 kts 355°
2026-05-07 00:52 42.34898 1.04343 33998 ft 464 kts 355°
2026-05-07 00:52 42.41357 1.03637 33992 ft 465 kts 355°
2026-05-07 00:53 42.47823 1.02929 34006 ft 466 kts 355°
2026-05-07 00:53 42.54311 1.02226 34009 ft 468 kts 355°
2026-05-07 00:54 42.60818 1.01521 34007 ft 470 kts 355°
2026-05-07 00:54 42.67356 1.00809 34006 ft 472 kts 355°
2026-05-07 00:55 42.73864 1.00098 34008 ft 472 kts 355°
2026-05-07 00:55 42.80409 0.99382 33999 ft 469 kts 355°
2026-05-07 00:56 42.86830 0.98678 33987 ft 455 kts 355°
2026-05-07 00:56 42.92049 0.98106 34000 ft 452 kts 355°
2026-05-07 00:57 42.98354 0.97412 33998 ft 458 kts 355°
2026-05-07 00:57 43.04751 0.96707 34007 ft 461 kts 355°
2026-05-07 00:58 43.11144 0.96000 34000 ft 461 kts 355°
2026-05-07 00:58 43.17538 0.95293 33999 ft 460 kts 355°
2026-05-07 00:59 43.27044 0.94237 34001 ft 457 kts 355°
2026-05-07 01:00 43.33380 0.93532 34000 ft 455 kts 355°
2026-05-07 01:00 43.39698 0.92828 34001 ft 454 kts 355°
2026-05-07 01:01 43.45860 0.92139 34000 ft 453 kts 355°
2026-05-07 01:01 43.52109 0.91439 33997 ft 450 kts 355°
2026-05-07 01:02 43.58316 0.90743 33997 ft 445 kts 355°
2026-05-07 01:02 43.64476 0.90050 34001 ft 444 kts 355°
2026-05-07 01:03 43.70566 0.89364 33973 ft 427 kts 355°
2026-05-07 01:03 43.73480 0.89035 33981 ft 412 kts 355°
2026-05-07 01:03 43.76263 0.88721 33985 ft 403 kts 355°
2026-05-07 01:04 43.81873 0.88086 34015 ft 408 kts 355°
2026-05-07 01:04 43.87593 0.87355 34006 ft 417 kts 349°
2026-05-07 01:05 43.93064 0.84724 34016 ft 418 kts 334°
2026-05-07 01:05 43.98331 0.81228 34001 ft 420 kts 334°
2026-05-07 01:06 44.03623 0.77755 33994 ft 421 kts 334°
2026-05-07 01:06 44.08919 0.74314 33999 ft 419 kts 335°
2026-05-07 01:07 44.14210 0.70884 33995 ft 418 kts 335°
2026-05-07 01:07 44.19464 0.67471 33995 ft 415 kts 335°
2026-05-07 01:08 44.24655 0.64092 33996 ft 413 kts 335°
2026-05-07 01:08 44.29845 0.60706 33995 ft 411 kts 334°
2026-05-07 01:09 44.35015 0.57326 34002 ft 409 kts 334°
2026-05-07 01:09 44.40171 0.53949 34002 ft 408 kts 334°
2026-05-07 01:10 44.45318 0.50572 34002 ft 408 kts 334°
2026-05-07 01:10 44.50469 0.47188 34005 ft 409 kts 334°
2026-05-07 01:11 44.55604 0.43807 34004 ft 410 kts 334°
2026-05-07 01:11 44.60784 0.40390 34005 ft 411 kts 334°
2026-05-07 01:12 44.65974 0.36959 34004 ft 413 kts 334°
2026-05-07 01:12 44.71108 0.33337 33975 ft 414 kts 321°
2026-05-07 01:12 44.73094 0.30449 34027 ft 411 kts 303°
2026-05-07 01:13 44.74391 0.26885 34024 ft 410 kts 292°
2026-05-07 01:13 44.76682 0.19498 34012 ft 412 kts 294°
2026-05-07 01:14 44.79018 0.12165 34000 ft 414 kts 294°
2026-05-07 01:14 44.81389 0.04772 33999 ft 415 kts 294°
2026-05-07 01:15 44.83763 -0.02646 34001 ft 415 kts 294°
2026-05-07 01:15 44.86130 -0.10064 34000 ft 414 kts 294°
2026-05-07 01:16 44.88086 -0.16213 34000 ft 414 kts 294°
2026-05-07 01:16 44.90725 -0.23395 34005 ft 412 kts 302°
2026-05-07 01:17 44.93919 -0.30109 33996 ft 412 kts 304°
2026-05-07 01:17 44.97120 -0.36806 34001 ft 410 kts 303°
2026-05-07 01:18 45.00228 -0.43506 34000 ft 410 kts 303°
2026-05-07 01:18 45.03320 -0.50268 34003 ft 409 kts 302°
2026-05-07 01:19 45.06393 -0.57021 34000 ft 408 kts 302°
2026-05-07 01:19 45.09464 -0.63778 34004 ft 408 kts 302°
2026-05-07 01:20 45.12502 -0.70550 33995 ft 408 kts 297°
2026-05-07 01:20 45.13389 -0.74330 34002 ft 405 kts 275°
2026-05-07 01:20 45.13290 -0.78292 33991 ft 404 kts 256°
2026-05-07 01:20 45.12311 -0.82004 34013 ft 403 kts 239°
2026-05-07 01:21 45.10588 -0.85116 33993 ft 404 kts 221°
2026-05-07 01:21 45.08304 -0.87325 34008 ft 404 kts 205°
2026-05-07 01:21 45.05624 -0.88498 33996 ft 405 kts 187°
2026-05-07 01:22 44.99987 -0.89279 34009 ft 409 kts 186°
2026-05-07 01:22 44.94303 -0.90204 33967 ft 409 kts 190°
2026-05-07 01:22 44.91512 -0.90698 33684 ft 402 kts 176°
2026-05-07 01:23 44.88816 -0.89822 33184 ft 401 kts 152°
2026-05-07 01:23 44.86562 -0.87542 32717 ft 400 kts 134°
2026-05-07 01:23 44.84823 -0.84502 32332 ft 397 kts 121°
2026-05-07 01:23 44.83811 -0.80927 31891 ft 395 kts 97°
2026-05-07 01:24 44.83637 -0.77089 31582 ft 390 kts 94°
2026-05-07 01:24 44.83246 -0.73340 31253 ft 386 kts 103°
2026-05-07 01:24 44.82540 -0.69715 30861 ft 381 kts 109°
2026-05-07 01:24 44.81561 -0.66269 30339 ft 378 kts 115°
2026-05-07 01:25 44.80660 -0.62851 29571 ft 380 kts 97°
2026-05-07 01:25 44.80751 -0.59160 28886 ft 379 kts 77°
2026-05-07 01:25 44.81108 -0.55491 28099 ft 380 kts 95°
2026-05-07 01:25 44.80439 -0.51926 27389 ft 379 kts 119°
2026-05-07 01:26 44.78789 -0.49066 26634 ft 379 kts 143°
2026-05-07 01:26 44.76457 -0.47408 25916 ft 377 kts 167°
2026-05-07 01:26 44.73859 -0.47227 25216 ft 375 kts 192°
2026-05-07 01:26 44.71440 -0.48323 23553 ft 332 kts 195°
2026-05-07 01:27 44.69689 -0.48658 13484 ft 270 kts 198°
2026-05-07 01:27 44.67236 -0.50846 8698 ft 425 kts 224°